Location: Newark
(48.1500°N, 2.9667°W)
Time: 18:01:10
(UTC+00:00)

A-11 Canister half - Visible Passes

Search period start: 26 January 2020 00:00
Search period end: 05 February 2020 00:00
Orbit: 1525 x 1684 km, 47.3° (Epoch: 25 January)

Date Brightness Start Highest point End Pass type
(mag) Time Alt. Az. Time Alt. Az. Time Alt. Az.
26 Jan 9.2 17:56:36 10° SW 18:05:44 62° SSE 18:13:55 15° ENE visible
26 Jan 8.8 20:01:04 10° W 20:10:31 86° S 20:12:13 66° E visible
26 Jan 10.2 22:06:01 10° WNW 22:10:31 33° W 22:10:31 33° W visible
27 Jan 9.3 17:35:03 10° SW 17:44:08 60° SSE 17:53:27 10° ENE visible
27 Jan 8.9 19:39:26 10° W 19:48:53 86° S 19:51:49 52° E visible
27 Jan 9.8 21:44:23 10° WNW 21:50:07 42° W 21:50:07 42° W visible
28 Jan 8.9 19:17:48 10° W 19:27:14 85° S 19:31:26 40° E visible
28 Jan 9.4 21:22:46 10° W 21:29:44 54° W 21:29:44 54° W visible
28 Jan 11.2 23:27:54 10° WNW 23:28:02 10° WNW 23:28:02 10° WNW visible
29 Jan 9.0 18:56:11 10° W 19:05:35 85° S 19:11:02 31° E visible
29 Jan 9.1 21:01:09 10° W 21:09:20 67° WSW 21:09:20 67° WSW visible
29 Jan 11.0 23:06:14 10° WNW 23:07:38 15° W 23:07:38 15° W visible
30 Jan 9.0 18:34:34 10° W 18:43:57 84° S 18:50:39 23° E visible
30 Jan 8.9 20:39:31 10° W 20:48:57 76° SSW 20:48:57 76° SSW visible
30 Jan 10.7 22:44:35 10° WNW 22:47:16 20° W 22:47:16 20° W visible
31 Jan 9.0 18:12:56 10° WSW 18:22:18 84° S 18:30:17 17° E visible
31 Jan 8.9 20:17:53 10° W 20:27:19 77° SSW 20:28:35 68° SE visible
31 Jan 10.4 22:22:56 10° WNW 22:26:54 26° W 22:26:54 26° W visible
01 Feb 9.1 17:51:19 10° WSW 18:00:41 83° S 18:09:56 11° E visible
01 Feb 8.9 19:56:16 10° W 20:05:41 78° SSW 20:08:15 54° ESE visible
01 Feb 10.1 22:01:17 10° WNW 22:06:33 32° W 22:06:33 32° W visible
02 Feb 9.1 17:29:42 10° WSW 17:39:02 82° S 17:48:37 10° E visible
02 Feb 9.0 19:34:38 10° W 19:44:02 79° SSW 19:47:56 42° ESE visible
02 Feb 9.8 21:39:38 10° WNW 21:46:15 39° WSW 21:46:15 39° WSW visible
03 Feb 9.0 19:13:01 10° W 19:22:24 80° SSW 19:27:40 32° ESE visible
03 Feb 9.6 21:18:00 10° WNW 21:25:58 45° SW 21:25:58 45° SW visible
04 Feb 9.0 18:51:23 10° W 19:00:46 81° SSW 19:07:25 23° ESE visible
04 Feb 9.5 20:56:21 10° WNW 21:05:14 48° SW 21:05:45 47° SSW visible
04 Feb 11.1 23:03:15 10° W 23:04:04 12° W 23:04:04 12° W visible
